Change the Weather History Date:

Thursday, February 20, 2014

  Actual Average (KHTO) Record (KHTO)
Temperature  
Mean Temperature 42 °F -  
Max Temperature 46 °F 42 °F 56 °F (1974)
Min Temperature 37 °F 27 °F 3 °F (1959)
Degree Days  
Heating Degree Days 24    
Moisture  
Dew Point 32 °F    
Average Humidity 73    
Maximum Humidity 93    
Minimum Humidity 39    
Precipitation  
Precipitation 0.15 in - - ()
Sea Level Pressure  
Sea Level Pressure 30.17 in    
Wind  
Wind Speed 7 mph (WSW)    
Max Wind Speed 12 mph    
Max Gust Speed 21 mph    
Averages and records for this station are not official NWS values.
T = Trace of Precipitation, MM = Missing Value Source: NWS Daily Summary

Daily Weather History Graph

Daily Weather History Graph

Search for Another Location

Airport or City:

Trip Planner

Search our weather history database for the weather conditions in past years. The results will help you decide how hot, cold, wet, or windy it might be!

Date:

Astronomy

Feb. 20, 2014 Rise Set
Actual Time 6:35 AM EST 5:28 PM EST
Civil Twilight 6:07 AM EST 5:56 PM EST
Nautical Twilight 5:35 AM EST 6:28 PM EST
Astronomical Twilight 5:03 AM EST 7:00 PM EST
Moon 11:22 PM EST (2/20) 9:13 AM EST (2/20)
Length of Visible Light 11h 48m
Length of Day
10h 52m
Waning Gibbous, 71% of the Moon is Illuminated
Feb 20
Waning Gibbous
Feb 22
Last Quarter
Mar 1
New
Mar 8
First Quarter
Mar 16
Full

Hourly Weather History & Observations

Time (EST) Temp. Windchill Dew Point Humidity Pressure Visibility Wind Dir Wind Speed Gust Speed Precip Events Conditions
12:54 AM 37.9 °F 31.5 °F 35.1 °F 89% 29.95 in - West 9.2 mph 20.7 mph N/A   Unknown
1:54 AM 39.0 °F 33.4 °F 34.0 °F 82% 30.01 in - West 8.1 mph - N/A   Unknown
2:54 AM 39.0 °F 31.8 °F 34.0 °F 82% 30.06 in - West 11.5 mph 18.4 mph N/A   Unknown
3:54 AM 39.0 °F 32.8 °F 32.0 °F 76% 30.09 in - West 9.2 mph 17.3 mph N/A   Unknown
4:54 AM 37.9 °F 33.5 °F 32.0 °F 79% 30.13 in - West 5.8 mph - N/A   Unknown
5:54 AM 37.0 °F 32.4 °F 30.0 °F 76% 30.14 in - West 5.8 mph - N/A   Unknown
6:54 AM 37.0 °F 33.3 °F 28.9 °F 73% 30.19 in - West 4.6 mph - N/A   Unknown
7:54 AM 37.9 °F 34.4 °F 30.9 °F 76% 30.22 in - West 4.6 mph - N/A   Unknown
8:54 AM 39.0 °F 34.0 °F 30.0 °F 70% 30.24 in - West 6.9 mph - N/A   Unknown
9:54 AM 39.9 °F 35.1 °F 30.9 °F 70% 30.24 in - West 6.9 mph - N/A   Unknown
10:54 AM 42.1 °F 37.7 °F 30.0 °F 62% 30.24 in - West 6.9 mph - N/A   Unknown
11:54 AM 44.1 °F 39.5 °F 30.0 °F 58% 30.24 in - West 8.1 mph - N/A   Unknown
12:54 PM 45.0 °F 40.1 °F 28.9 °F 53% 30.24 in - West 9.2 mph - N/A   Unknown
1:54 PM 44.1 °F 40.1 °F 28.9 °F 55% 30.23 in - West 6.9 mph - N/A   Unknown
2:54 PM 46.9 °F - 23.0 °F 39% 30.23 in - West 4.6 mph - N/A   Unknown
3:54 PM 44.1 °F 40.8 °F 26.1 °F 49% 30.22 in - South 5.8 mph - N/A   Unknown
4:54 PM 41.0 °F - 32.0 °F 70% 30.23 in - Calm Calm - N/A   Unknown
5:54 PM 39.9 °F 37.8 °F 34.0 °F 79% 30.21 in - SE 3.5 mph - N/A   Unknown
6:54 PM 41.0 °F 37.1 °F 36.0 °F 82% 30.20 in - South 5.8 mph - N/A   Unknown
7:54 PM 41.0 °F 39.0 °F 36.0 °F 82% 30.16 in - SE 3.5 mph - N/A   Unknown
8:54 PM 42.1 °F 37.7 °F 35.1 °F 76% 30.14 in - ESE 6.9 mph - N/A   Unknown
9:54 PM 39.0 °F 35.7 °F 36.0 °F 89% 30.17 in - ENE 4.6 mph - 0.09 in   Unknown
10:54 PM 39.0 °F 32.8 °F 37.0 °F 93% 30.12 in - NE 9.2 mph - 0.04 in   Unknown
11:54 PM 39.0 °F 32.8 °F 37.0 °F 93% 30.11 in - NE 9.2 mph - 0.02 in   Unknown